Weather History for KOLY - February, 2013

Change the Weather History Date:

Friday, February 15, 2013

  Actual Average (KEVV) Record (KEVV)
Temperature  
Mean Temperature 32 °F 36 °F  
Max Temperature 39 °F 46 °F 73 °F (1954)
Min Temperature 26 °F 27 °F -2 °F (1986)
Degree Days  
Heating Degree Days 32 28  
Month to date heating degree days 453  
Since 1 July heating degree days 3232  
Cooling Degree Days 0 0  
Month to date cooling degree days 0  
Year to date cooling degree days 0  
Moisture  
Dew Point 27 °F    
Average Humidity 76    
Maximum Humidity 93    
Minimum Humidity 52    
Precipitation  
Precipitation 0.00 in 0.12 in 2.09 in (1990)
Month to date precipitation 1.75  
Year to date precipitation 4.85  
Snow  
Snow 0.00 in 0.20 in 6.90 in (1993)
Month to date snowfall 2.3  
Since 1 July snowfall 9.2  
Snow Depth -    
Sea Level Pressure  
Sea Level Pressure 30.16 in    
Wind  
Wind Speed 5 mph (NW)    
Max Wind Speed 15 mph    
Max Gust Speed 22 mph    
Visibility 10 miles    
Events      
T = Trace of Precipitation, MM = Missing Value Source: NWS Daily Summary

Daily Weather History Graph

Daily Weather History Graph

Search for Another Location

Airport or City:

Trip Planner

Search our weather history database for the weather conditions in past years. The results will help you decide how hot, cold, wet, or windy it might be!

Date:

Astronomy

Feb. 15, 2013 Rise Set
Actual Time 6:43 AM CST 5:30 PM CST
Civil Twilight 6:16 AM CST 5:58 PM CST
Nautical Twilight 5:45 AM CST 6:29 PM CST
Astronomical Twilight 5:14 AM CST 7:00 PM CST
Moon 9:23 AM CST (2/15) 11:27 PM CST (2/15)
Length of Visible Light 11h 41m
Length of Day
10h 47m
Waxing Crescent, 30% of the Moon is Illuminated
Feb 15
Waxing Crescent
Feb 17
First Quarter
Feb 25
Full
Mar 4
Last Quarter
Mar 11
New

Hourly Weather History & Observations

Time (CST) Temp. Windchill Dew Point Humidity Pressure Visibility Wind Dir Wind Speed Gust Speed Precip Events Conditions
12:15 AM 35.6 °F - 33.8 °F 93% 30.04 in 10.0 mi Calm Calm - N/A   Mostly Cloudy
12:35 AM 37.4 °F - 33.8 °F 87% 30.04 in 10.0 mi Calm Calm - N/A   Scattered Clouds
12:55 AM 35.6 °F - 33.8 °F 93% 30.04 in 10.0 mi Calm Calm - N/A   Clear
1:15 AM 35.6 °F 31.7 °F 33.8 °F 93% 30.05 in 10.0 mi WNW 4.6 mph - N/A   Clear
1:35 AM 35.6 °F - 33.8 °F 93% 30.05 in 10.0 mi Calm Calm - N/A   Mostly Cloudy
1:55 AM 35.6 °F - 33.8 °F 93% 30.05 in 10.0 mi Calm Calm - N/A   Overcast
2:15 AM 35.6 °F - 33.8 °F 93% 30.05 in 10.0 mi Calm Calm - N/A   Mostly Cloudy
2:35 AM 37.4 °F - 33.8 °F 87% 30.05 in 10.0 mi Calm Calm - N/A   Overcast
2:55 AM 35.6 °F 32.8 °F 33.8 °F 93% 30.05 in 10.0 mi WNW 3.5 mph - N/A   Overcast
3:15 AM 37.4 °F 33.8 °F 33.8 °F 87% 30.05 in 10.0 mi West 4.6 mph - N/A   Overcast
3:35 AM 37.4 °F 34.9 °F 33.8 °F 87% 30.05 in 10.0 mi WSW 3.5 mph - N/A   Overcast
3:55 AM 37.4 °F 34.9 °F 33.8 °F 87% 30.06 in 10.0 mi WSW 3.5 mph - N/A   Mostly Cloudy
4:15 AM 37.4 °F - 33.8 °F 87% 30.07 in 10.0 mi Calm Calm - N/A   Overcast
4:35 AM 37.4 °F 34.9 °F 33.8 °F 87% 30.08 in 10.0 mi West 3.5 mph - N/A   Overcast
4:55 AM 37.4 °F 32.1 °F 33.8 °F 87% 30.08 in 10.0 mi West 6.9 mph - N/A   Overcast
5:15 AM 37.4 °F 32.8 °F 33.8 °F 87% 30.09 in 10.0 mi WNW 5.8 mph - N/A   Overcast
5:35 AM 37.4 °F 32.8 °F 33.8 °F 87% 30.09 in 10.0 mi WNW 5.8 mph - N/A   Overcast
5:55 AM 35.6 °F 28.6 °F 32.0 °F 87% 30.10 in 10.0 mi NW 9.2 mph - N/A   Scattered Clouds
6:15 AM 35.6 °F 26.2 °F 32.0 °F 87% 30.11 in 10.0 mi NW 15.0 mph 19.6 mph N/A   Scattered Clouds
6:35 AM 35.6 °F 28.0 °F 30.2 °F 81% 30.12 in 10.0 mi NW 10.4 mph - N/A   Scattered Clouds
6:55 AM 33.8 °F 26.4 °F 30.2 °F 87% 30.13 in 10.0 mi NW 9.2 mph - N/A   Clear
7:15 AM 35.6 °F 27.5 °F 30.2 °F 81% 30.14 in 10.0 mi NW 11.5 mph 16.1 mph N/A   Mostly Cloudy
7:35 AM 35.6 °F 27.5 °F 30.2 °F 81% 30.14 in 10.0 mi NW 11.5 mph - N/A   Overcast
7:55 AM 35.6 °F 28.0 °F 30.2 °F 81% 30.15 in 10.0 mi NNW 10.4 mph - N/A   Overcast
8:15 AM 35.6 °F 28.0 °F 30.2 °F 81% 30.16 in 10.0 mi NW 10.4 mph - N/A   Overcast
8:35 AM 35.6 °F 28.6 °F 28.4 °F 75% 30.17 in 10.0 mi NNW 9.2 mph - N/A   Overcast
8:55 AM 35.6 °F 27.1 °F 28.4 °F 75% 30.17 in 10.0 mi NW 12.7 mph - N/A   Mostly Cloudy
9:15 AM 33.8 °F 24.3 °F 28.4 °F 81% 30.18 in 10.0 mi NW 13.8 mph - N/A   Overcast
9:35 AM 33.8 °F 24.3 °F 28.4 °F 81% 30.19 in 10.0 mi NW 13.8 mph 19.6 mph N/A   Overcast
9:55 AM 33.8 °F 25.3 °F 28.4 °F 81% 30.20 in 10.0 mi NW 11.5 mph 17.3 mph N/A   Overcast
10:15 AM 33.8 °F 24.8 °F 26.6 °F 75% 30.20 in 10.0 mi NW 12.7 mph 18.4 mph N/A   Overcast
10:35 AM 35.6 °F 27.1 °F 24.8 °F 65% 30.20 in 10.0 mi NNW 12.7 mph 18.4 mph N/A   Mostly Cloudy
10:55 AM 35.6 °F 27.1 °F 24.8 °F 65% 30.20 in 10.0 mi NW 12.7 mph 18.4 mph N/A   Mostly Cloudy
11:15 AM 35.6 °F 26.6 °F 26.6 °F 70% 30.20 in 10.0 mi WNW 13.8 mph - N/A   Overcast
11:55 AM 37.4 °F 28.5 °F 24.8 °F 60% 30.20 in 10.0 mi NW 15.0 mph 20.7 mph N/A   Scattered Clouds
12:15 PM 37.4 °F 28.9 °F 24.8 °F 60% 30.20 in 10.0 mi NW 13.8 mph 21.9 mph N/A   Scattered Clouds
12:35 PM 35.6 °F 26.2 °F 23.0 °F 60% 30.20 in 10.0 mi NW 15.0 mph 19.6 mph N/A   Scattered Clouds
12:55 PM 39.2 °F 33.6 °F 24.8 °F 56% 30.19 in 10.0 mi NW 8.1 mph 19.6 mph N/A   Mostly Cloudy
1:15 PM 37.4 °F 29.8 °F 24.8 °F 60% 30.19 in 10.0 mi WNW 11.5 mph 19.6 mph N/A   Mostly Cloudy
1:35 PM 37.4 °F 29.8 °F 23.0 °F 56% 30.19 in 10.0 mi NNW 11.5 mph - N/A   Mostly Cloudy
1:55 PM 37.4 °F 29.8 °F 24.8 °F 60% 30.19 in 10.0 mi NNW 11.5 mph - N/A   Mostly Cloudy
2:15 PM 37.4 °F 29.3 °F 24.8 °F 60% 30.19 in 10.0 mi NW 12.7 mph 19.6 mph N/A   Mostly Cloudy
2:35 PM 35.6 °F 28.6 °F 23.0 °F 60% 30.20 in 10.0 mi North 9.2 mph - N/A   Mostly Cloudy
2:55 PM 35.6 °F 28.6 °F 23.0 °F 60% 30.20 in 10.0 mi NNW 9.2 mph - N/A   Mostly Cloudy
3:15 PM 37.4 °F 30.8 °F 24.8 °F 60% 30.20 in 10.0 mi NNW 9.2 mph - N/A   Scattered Clouds
3:35 PM 39.2 °F 32.5 °F 24.8 °F 56% 30.20 in 10.0 mi NNW 10.4 mph 16.1 mph N/A   Mostly Cloudy
3:55 PM 39.2 °F 32.5 °F 24.8 °F 56% 30.20 in 10.0 mi NW 10.4 mph 19.6 mph N/A   Mostly Cloudy
4:15 PM 37.4 °F 30.3 °F 21.2 °F 52% 30.21 in 10.0 mi NW 10.4 mph - N/A   Scattered Clouds
4:35 PM 37.4 °F 30.8 °F 23.0 °F 56% 30.21 in 10.0 mi NW 9.2 mph - N/A   Clear
4:55 PM 37.4 °F 30.8 °F 23.0 °F 56% 30.21 in 10.0 mi NW 9.2 mph - N/A   Clear
5:15 PM 35.6 °F 30.7 °F 21.2 °F 56% 30.21 in 10.0 mi NW 5.8 mph - N/A   Clear
5:35 PM 33.8 °F 28.6 °F 23.0 °F 65% 30.21 in 10.0 mi NNW 5.8 mph - N/A   Clear
5:55 PM 32.0 °F 26.4 °F 24.8 °F 75% 30.21 in 10.0 mi NW 5.8 mph - N/A   Clear
6:15 PM 32.0 °F 28.7 °F 23.0 °F 69% 30.22 in 10.0 mi NW 3.5 mph - N/A   Clear
6:35 PM 30.2 °F 25.4 °F 23.0 °F 75% 30.21 in 10.0 mi NNW 4.6 mph - N/A   Clear
6:55 PM 30.2 °F 26.7 °F 24.8 °F 80% 30.21 in 10.0 mi NW 3.5 mph - N/A   Clear
7:15 PM 30.2 °F 24.3 °F 23.0 °F 75% 30.21 in 10.0 mi NW 5.8 mph - N/A   Clear
7:35 PM 30.2 °F 25.4 °F 23.0 °F 75% 30.21 in 10.0 mi NNW 4.6 mph - N/A   Clear
7:55 PM 30.2 °F 25.4 °F 23.0 °F 75% 30.22 in 10.0 mi NW 4.6 mph - N/A   Clear
8:15 PM 30.2 °F 25.4 °F 21.2 °F 69% 30.22 in 10.0 mi NW 4.6 mph - N/A   Clear
8:35 PM 28.4 °F 24.6 °F 23.0 °F 80% 30.22 in 10.0 mi NW 3.5 mph - N/A   Clear
8:55 PM 28.4 °F 24.6 °F 23.0 °F 80% 30.22 in 10.0 mi WNW 3.5 mph - N/A   Clear
9:15 PM 28.4 °F - 21.2 °F 74% 30.21 in 10.0 mi Calm Calm - N/A   Clear
9:35 PM 28.4 °F - 23.0 °F 80% 30.21 in 10.0 mi Calm Calm - N/A   Clear
9:55 PM 28.4 °F - 23.0 °F 80% 30.21 in 10.0 mi Calm Calm - N/A   Clear
10:15 PM 28.4 °F - 21.2 °F 74% 30.20 in 10.0 mi Calm Calm - N/A   Clear
10:35 PM 28.4 °F - 21.2 °F 74% 30.20 in 10.0 mi Calm Calm - N/A   Clear
10:55 PM 26.6 °F - 21.2 °F 80% 30.19 in 10.0 mi Calm Calm - N/A   Clear
11:15 PM 28.4 °F - 21.2 °F 74% 30.19 in 10.0 mi Calm Calm - N/A   Clear
11:35 PM 26.6 °F - 23.0 °F 86% 30.19 in 10.0 mi Calm Calm - N/A   Clear
11:55 PM 26.6 °F - 24.8 °F 93% 30.19 in 10.0 mi Calm Calm - N/A   Clear